sat.trackr.live / text

‹ back to catalog

ONEWEB-0064

NORAD 45433 · 2020-020K

PAYLOAD ACTIVE UNKNOWN

§ Identity

Operator
Country
UK
Launch date
2020-03-21
Launch site
TYMSC
Launch vehicle
Mass (kg)
RCS (m²)

Purposes: comms

External: N2YO · Heavens-Above · Gunter

§ Orbital elements

Epoch: 2026-05-25T03:27:27.612576Z

Period
109.80 min
Inclination
87.8907°
Eccentricity
0.0001611
Mean motion
13.11415997 rev/d
Perigee alt
1,216.5 km
Apogee alt
1,218.9 km
Semi-major
7,595.8 km
B*
-8.6621e-4
RAAN
25.6514°
Arg perigee
83.4798°
Mean anomaly
276.6513°
Rev number
29,966

§ Raw data

ONEWEB-00641 45433U 20020K   26145.14406959 -.00000294  00000+0 -86621-3 0  99912 45433  87.8907  25.6514 0001611  83.4798 276.6513 13.11415997299664

JSON: /api/v1/satellites/45433 · /tle

For live sub-satellite position, see the globe view (requires WebGL).

§ Visibility from observer

Set your observer location to see the next 7 days of passes ≥ 10°. The values pass through the URL so the page stays shareable.

No JS? Fill the form by hand. The geolocation button needs JavaScript.